Погода в Дуденеве

Россия / Нижегородская область     56°10′42″N   43°30′40″E
темп.,
°C
ветер,
м/с
пор.,
м/с
влажн.,
%
обл.,
%
осадки,
мм/ч
давл.,
гПа
погр.,
м
24 октября, вс
вс2400:00+4зюз411785 0.0 1007656
03:00+3зюз41083100 0.0 1008534
06:00+2зюз4109091 0.0 1009440
09:00+3зюз5108699 0.0 1010504
12:00+4юз5980100 0.0 1010655
15:00+5з4880100 0.1 1010795
18:00+4з3695100 0.3 1011658
21:00+3сз5996100 0.9 1012649
25 октября, пн
пн2500:00+1ссз6129499 0.9 1015908
03:00+1ссз6118199 1.1 10191067
06:000ссз5117651 0.0 1022769
09:000ссз597815 0.0 1025644
12:00+2сз456015 0.0 1026892
15:00+2зсз3558100 0.0 1026844
18:00+1зюз3770100 0.0 1026372
21:00+1юз4107291 0.0 1025503
26 октября, вт
вт2600:000юз5137363 0.0 1024451
03:00+1юз6137484 0.0 1022491
06:00+1зюз6137798 0.0 1021538
09:00+1зюз5127969 0.0 1021519
12:00+4зюз696795 0.0 1021617
15:00+5зюз51165100 0.0 1020656
18:00+4зюз51272100 0.0 1020490
21:00+3зюз5127672 0.0 1020447
27 октября, ср
ср2700:00+2юз51280100 0.0 1019407
03:00+2юз5128077 0.0 1019396
06:00+1юз5128186 0.0 1018381
09:00+2юз5137537 0.0 1018438
12:00+6зюз6125836 0.0 1017642
15:00+7юз61355100 0.0 1016812
18:00+6юз61460100 0.0 1015727
21:00+5юз61365100 0.0 1014724
28 октября, чт
чт2800:00+5зюз61171100 0.0 1014857
03:00+4зюз51095100 0.3 1014665
06:00+5зюз51089100 0.0 1015475
09:00+6зюз51178100 0.0 1016685
12:00+6з51075100 0.0 1017804
15:00+7зсз596976 0.0 10181080
18:00+6зсз2677100 0.1 1020318
21:00+5ссз2482100 0.3 1022453